WB4ZUT Weather Reports


time (UTC)temp
F
wind
direction
speed
knots
gust
knots
rain 1hr
in
rain 24hr
in
rain mn
in
humidity
%
barometer
mb
20260905204711 103 341 1.7 5.2 0.00 0.00 0.00 42 1010.3
20260905204206 103 60 0.9 0.9 0.00 0.00 0.00 41 1010.5
20260905203700 103 37 1.7 1.7 0.00 0.00 0.00 42 1010.5
20260905203156 103 65 0.9 0.9 0.00 0.00 0.00 44 1010.5
20260905202651 102 1 1.7 1.7 0.00 0.00 0.00 43 1010.4
20260905202146 102 7 2.6 2.6 0.00 0.00 0.00 43 1010.6
20260905201642 102 56 1.7 4.3 0.00 0.00 0.00 45 1010.8
20260905201136 102 49 0.9 0.9 0.00 0.00 0.00 44 1010.9
20260905200632 102 294 4.3 5.2 0.00 0.00 0.00 44 1011.0
20260905200127 102 300 3.5 5.2 0.00 0.00 0.00 44 1010.9
20260905195625 103 251 4.3 6.1 0.00 0.00 0.00 44 1010.9
20260905195121 102 280 1.7 1.7 0.00 0.00 0.00 43 1011.0
20260905194621 103 343 2.6 2.6 0.00 0.00 0.00 43 1011.0
20260905194120 103 65 0.9 0.9 0.00 0.00 0.00 43 1011.0
20260905193615 101 82 0.0 0.0 0.00 0.00 0.00 46 1010.9
20260905193110 100 136 1.7 1.7 0.00 0.00 0.00 46 1011.1
20260905192606 102 8 2.6 2.6 0.00 0.00 0.00 45 1011.1
20260905192102 102 6 1.7 1.7 0.00 0.00 0.00 45 1011.5
20260905191600 102 64 0.9 0.9 0.00 0.00 0.00 45 1011.4
20260905191059 101 341 1.7 1.7 0.00 0.00 0.00 46 1011.7
20260905190557 102 260 2.6 4.3 0.00 0.00 0.00 45 1011.8
20260905190056 101 348 1.7 1.7 0.00 0.00 0.00 46 1011.6
20260905185556 101 19 2.6 4.3 0.00 0.00 0.00 48 1011.6
20260905185050 101 270 6.1 7.0 0.00 0.00 0.00 47 1011.9
20260905184545 101 110 1.7 1.7 0.00 0.00 0.00 46 1012.1
20260905184044 101 353 3.5 5.2 0.00 0.00 0.00 47 1012.1
20260905183538 101 325 1.7 1.7 0.00 0.00 0.00 47 1012.1
20260905183033 102 251 2.6 2.6 0.00 0.00 0.00 48 1012.2
20260905182533 101 96 1.7 1.7 0.00 0.00 0.00 49 1012.2
20260905182027 101 291 1.7 4.3 0.00 0.00 0.00 48 1012.0
20260905181522 100 340 2.6 2.6 0.00 0.00 0.00 50 1012.1
20260905181021 99 18 0.9 1.7 0.00 0.00 0.00 54 1012.2
20260905180516 98 259 2.6 2.6 0.00 0.00 0.00 53 1012.3
20260905180012 99 316 2.6 4.3 0.00 0.00 0.00 53 1012.7
20260905175510 99 8 2.6 4.3 0.00 0.00 0.00 52 1012.4
20260905175007 99 163 2.6 2.6 0.00 0.00 0.00 53 1012.7
20260905174502 99 149 1.7 2.6 0.00 0.00 0.00 52 1012.5
20260905173957 100 308 3.5 4.3 0.00 0.00 0.00 52 1012.6
20260905173453 99 181 2.6 4.3 0.00 0.00 0.00 53 1012.8
20260905172949 99 111 2.6 2.6 0.00 0.00 0.00 52 1012.7
20260905172447 99 301 4.3 5.2 0.00 0.00 0.00 52 1012.9
20260905171942 98 14 0.9 0.9 0.00 0.00 0.00 55 1012.9
20260905171439 99 316 2.6 2.6 0.00 0.00 0.00 52 1013.1
20260905170935 100 282 1.7 4.3 0.00 0.00 0.00 52 1013.0
20260905170431 99 110 0.0 0.9 0.00 0.00 0.00 55 1013.0
20260905165930 99 339 3.5 4.3 0.00 0.00 0.00 53 1012.9
20260905165425 99 63 0.9 0.9 0.00 0.00 0.00 55 1013.0
20260905164921 99 9 1.7 1.7 0.00 0.00 0.00 54 1013.1
20260905164420 98 46 1.7 2.6 0.00 0.00 0.00 56 1013.4
20260905163915 97 339 2.6 2.6 0.00 0.00 0.00 55 1013.3
20260905163412 99 341 2.6 2.6 0.00 0.00 0.00 55 1013.6
20260905162908 98 133 1.7 1.7 0.00 0.00 0.00 56 1013.5
20260905162402 97 309 3.5 4.3 0.00 0.00 0.00 58 1013.8
20260905161857 98 216 2.6 2.6 0.00 0.00 0.00 57 1013.9
20260905161356 97 18 0.9 0.9 0.00 0.00 0.00 60 1013.8
20260905160854 96 72 0.0 0.0 0.00 0.00 0.00 61 1013.8
20260905160349 96 322 1.7 1.7 0.00 0.00 0.00 61 1013.8
20260905155843 96 67 1.7 1.7 0.00 0.00 0.00 61 1014.0
20260905155342 96 287 3.5 4.3 0.00 0.00 0.00 60 1013.9
20260905154837 95 343 1.7 1.7 0.00 0.00 0.00 62 1013.9
20260905154332 95 67 0.0 0.0 0.00 0.00 0.00 64 1014.0
20260905153827 94 66 2.6 2.6 0.00 0.00 0.00 65 1013.8
20260905153324 94 48 1.7 1.7 0.00 0.00 0.00 66 1013.6
20260905152824 94 62 0.0 0.9 0.00 0.00 0.00 64 1014.1
20260905152323 93 97 0.9 1.7 0.00 0.00 0.00 66 1013.9
20260905151818 93 74 0.9 0.9 0.00 0.00 0.00 66 1013.7
20260905151313 94 105 0.9 1.7 0.00 0.00 0.00 64 1013.9
20260905150808 94 81 0.0 0.0 0.00 0.00 0.00 63 1013.7
20260905150308 93 69 0.0 0.0 0.00 0.00 0.00 67 1014.0
20260905145805 93 102 1.7 2.6 0.00 0.00 0.00 65 1013.8
20260905145259 93 63 0.0 0.9 0.00 0.00 0.00 66 1013.7
20260905144758 93 115 0.9 1.7 0.00 0.00 0.00 65 1014.1
20260905144254 92 67 0.9 0.9 0.00 0.00 0.00 66 1013.8
20260905143752 92 85 0.9 0.9 0.00 0.00 0.00 67 1013.7
20260905143247 92 54 0.9 0.9 0.00 0.00 0.00 67 1014.0
20260905142745 93 81 0.0 0.9 0.00 0.00 0.00 66 1013.9
20260905142240 91 77 0.0 0.9 0.00 0.00 0.00 67 1013.9
20260905141736 92 63 0.0 0.0 0.00 0.00 0.00 66 1013.8
20260905141232 90 43 1.7 1.7 0.00 0.00 0.00 69 1014.1
20260905140727 88 87 0.0 0.0 0.00 0.00 0.00 72 1014.1
20260905140221 88 93 0.9 0.9 0.00 0.00 0.00 74 1014.1
20260905135721 89 90 0.0 0.9 0.00 0.00 0.00 72 1013.9
20260905135217 89 89 0.9 0.9 0.00 0.00 0.00 73 1014.0
20260905134716 88 82 0.0 0.9 0.00 0.00 0.00 73 1013.9
20260905134215 88 75 0.9 0.9 0.00 0.00 0.00 73 1013.9
20260905133711 87 66 0.0 0.0 0.00 0.00 0.00 76 1014.3
20260905133206 86 94 0.9 0.9 0.00 0.00 0.00 76 1014.4
20260905132704 86 90 0.9 0.9 0.00 0.00 0.00 77 1014.1
20260905132200 85 77 0.0 0.9 0.00 0.00 0.00 79 1014.2
20260905131655 84 96 0.9 1.7 0.00 0.00 0.00 81 1014.1
20260905131150 83 92 0.9 1.7 0.00 0.00 0.00 82 1014.2
20260905130645 82 108 2.6 2.6 0.00 0.00 0.00 83 1014.2
20260905130144 81 109 0.9 0.9 0.00 0.00 0.00 87 1014.2
20260905125638 81 76 0.0 0.0 0.00 0.00 0.00 88 1014.3
20260905125134 80 72 0.0 0.0 0.00 0.00 0.00 89 1014.3
20260905124631 80 81 0.0 0.9 0.00 0.00 0.00 89 1014.3
20260905124127 79 79 0.0 0.0 0.00 0.00 0.00 91 1014.1
20260905123622 79 73 0.0 0.0 0.00 0.00 0.00 92 1014.0
20260905123119 78 71 0.0 0.0 0.00 0.00 0.00 93 1014.2
20260905122618 78 82 0.0 0.0 0.00 0.00 0.00 94 1014.0
20260905122113 77 79 0.0 0.0 0.00 0.00 0.00 95 1014.0
20260905121608 77 79 0.0 0.0 0.00 0.00 0.00 95 1013.9
20260905121103 77 80 0.0 0.0 0.00 0.00 0.00 96 1014.0
20260905120602 77 76 0.0 0.0 0.00 0.00 0.00 96 1013.7
20260905120057 77 75 0.0 0.0 0.00 0.00 0.00 96 1013.8
20260905115556 76 66 0.0 0.0 0.00 0.00 0.00 97 1013.8
20260905115051 76 66 0.0 0.0 0.00 0.00 0.00 97 1013.9
20260905114550 76 66 0.0 0.0 0.00 0.00 0.00 97 1013.6
20260905114050 76 66 0.0 0.0 0.00 0.00 0.00 97 1013.6
20260905113544 76 66 0.0 0.0 0.00 0.00 0.00 96 1013.6
20260905113040 77 66 0.0 0.0 0.00 0.00 0.00 96 1013.6
20260905112535 77 66 0.0 0.0 0.00 0.00 0.00 96 1013.3
20260905112030 77 65 0.0 0.0 0.00 0.00 0.00 96 1013.4
20260905111525 77 65 0.0 0.0 0.00 0.00 0.00 96 1013.5
20260905111024 77 64 0.0 0.0 0.00 0.00 0.00 96 1013.4
20260905110524 77 57 0.0 0.0 0.00 0.00 0.00 96 1013.4
20260905110019 77 51 0.9 0.9 0.00 0.00 0.00 95 1013.4
20260905105513 77 84 0.0 0.0 0.00 0.00 0.00 95 1013.5
20260905105013 77 84 0.0 0.0 0.00 0.00 0.00 95 1013.4
20260905104509 77 84 0.0 0.0 0.00 0.00 0.00 95 1013.2
20260905104008 77 85 0.0 0.0 0.00 0.00 0.00 94 1013.2
20260905103504 78 84 0.0 0.0 0.00 0.00 0.00 94 1013.1
20260905103000 78 83 0.0 0.0 0.00 0.00 0.00 94 1013.1
20260905102455 78 84 0.0 0.0 0.00 0.00 0.00 93 1013.2
20260905101951 78 84 0.0 0.0 0.00 0.00 0.00 94 1013.2
20260905101449 78 83 0.0 0.0 0.00 0.00 0.00 94 1013.2
20260905100949 78 83 0.0 0.0 0.00 0.00 0.00 94 1013.3
20260905100444 78 83 0.0 0.0 0.00 0.00 0.00 94 1013.0
20260905095943 78 83 0.0 0.0 0.00 0.00 0.00 94 1013.1
20260905095438 78 83 0.0 0.0 0.00 0.00 0.00 93 1013.1
20260905094933 78 83 0.0 0.0 0.00 0.00 0.00 92 1013.0
20260905094429 78 83 0.0 0.0 0.00 0.00 0.00 92 1012.9
20260905093927 78 83 0.0 0.0 0.00 0.00 0.00 91 1013.1
20260905093423 78 83 0.0 0.0 0.00 0.00 0.00 91 1012.9
20260905092919 79 83 0.0 0.0 0.00 0.00 0.00 90 1012.9
20260905092414 79 83 0.0 0.0 0.00 0.00 0.00 90 1012.7
20260905091909 79 83 0.0 0.0 0.00 0.00 0.00 89 1012.6
20260905091409 79 81 0.0 0.0 0.00 0.00 0.00 90 1012.8
20260905090907 78 77 0.0 0.0 0.00 0.00 0.00 90 1012.7
20260905090358 78 61 0.0 0.0 0.00 0.00 0.00 92 1012.7
20260905085856 78 61 0.0 0.0 0.00 0.00 0.00 92 1012.6
20260905085351 78 61 0.0 0.0 0.00 0.00 0.00 92 1012.7
20260905084847 78 61 0.0 0.0 0.00 0.00 0.00 93 1012.8
20260905084346 79 64 0.0 0.0 0.00 0.00 0.00 93 1012.8
20260905083841 78 68 0.0 0.0 0.00 0.00 0.00 93 1012.5
20260905083337 78 76 0.0 0.0 0.00 0.00 0.00 93 1012.7
20260905082832 78 76 0.0 0.0 0.00 0.00 0.00 92 1012.7
20260905082328 79 76 0.0 0.0 0.00 0.00 0.00 93 1012.8
20260905081823 79 77 0.0 0.0 0.00 0.00 0.00 93 1013.1
20260905081318 79 77 0.0 0.0 0.00 0.00 0.00 93 1013.1
20260905080817 79 77 0.0 0.0 0.00 0.00 0.00 93 1013.0
20260905080312 79 77 0.0 0.0 0.00 0.00 0.00 92 1013.0
20260905075811 79 77 0.0 0.0 0.00 0.00 0.00 92 1012.9
20260905075311 80 75 0.0 0.0 0.00 0.00 0.00 92 1012.9
20260905074809 80 108 0.9 0.9 0.00 0.00 0.00 90 1012.8
20260905074306 80 81 0.0 0.0 0.00 0.00 0.00 90 1012.9
20260905073801 80 63 0.0 0.0 0.00 0.00 0.00 90 1013.0
20260905073256 80 63 0.0 0.0 0.00 0.00 0.00 91 1013.0
20260905072756 79 63 0.0 0.0 0.00 0.00 0.00 91 1013.0
20260905072251 79 62 0.0 0.0 0.00 0.00 0.00 92 1013.1
20260905071748 79 62 0.0 0.0 0.00 0.00 0.00 93 1013.2
20260905071243 79 62 0.0 0.0 0.00 0.00 0.00 93 1013.2
20260905070738 79 62 0.0 0.0 0.00 0.00 0.00 93 1013.2
20260905070235 79 62 0.0 0.0 0.00 0.00 0.00 92 1013.3
20260905065734 80 62 0.0 0.0 0.00 0.00 0.00 92 1013.2
20260905065233 80 62 0.0 0.0 0.00 0.00 0.00 91 1013.1
20260905064728 80 62 0.0 0.0 0.00 0.00 0.00 91 1013.3
20260905064224 80 62 0.0 0.0 0.00 0.00 0.00 91 1013.3
20260905063722 80 62 0.0 0.0 0.00 0.00 0.00 91 1013.2
20260905063218 80 62 0.0 0.0 0.00 0.00 0.00 91 1013.3
20260905062714 80 62 0.0 0.0 0.00 0.00 0.00 91 1013.2
20260905062213 80 62 0.0 0.0 0.00 0.00 0.00 90 1013.2
20260905061708 80 62 0.0 0.0 0.00 0.00 0.00 90 1013.3
20260905061202 80 60 0.0 0.0 0.00 0.00 0.00 90 1013.4
20260905060657 80 77 0.0 0.0 0.00 0.00 0.00 90 1013.5
20260905060154 80 78 0.0 0.0 0.00 0.00 0.00 89 1013.5
20260905055652 80 78 0.0 0.0 0.00 0.00 0.00 90 1013.4
20260905055148 80 69 0.0 0.0 0.00 0.00 0.00 90 1013.4
20260905054644 80 69 0.0 0.0 0.00 0.00 0.00 90 1013.3
20260905054139 81 19 0.9 1.7 0.00 0.00 0.00 89 1013.3
20260905053638 81 63 0.0 0.0 0.00 0.00 0.00 89 1013.4
20260905053134 81 73 0.0 0.0 0.00 0.00 0.00 88 1013.4
20260905052633 81 74 0.0 0.0 0.00 0.00 0.00 88 1013.5
20260905052128 81 74 0.0 0.0 0.00 0.00 0.00 88 1013.7
20260905051623 82 74 0.0 0.0 0.00 0.00 0.00 87 1013.6
20260905051120 82 74 0.0 0.0 0.00 0.00 0.00 87 1013.5
20260905050616 82 74 0.0 0.0 0.00 0.00 0.00 87 1013.5
20260905050113 82 87 1.7 1.7 0.00 0.00 0.00 87 1013.4
20260905045612 82 78 0.0 0.0 0.00 0.00 0.00 88 1013.4
20260905045108 82 78 0.0 0.0 0.00 0.00 0.00 89 1013.4
20260905044608 82 78 0.0 0.0 0.00 0.00 0.00 88 1013.4
20260905044103 82 78 0.0 0.0 0.00 0.00 0.00 87 1013.4
20260905043601 82 71 0.0 0.0 0.00 0.00 0.00 87 1013.5
20260905043057 82 71 0.0 0.0 0.00 0.00 0.00 85 1013.4
20260905042555 82 71 0.0 0.0 0.00 0.00 0.00 84 1013.5
20260905042051 82 71 0.0 0.0 0.00 0.00 0.00 84 1013.5
20260905041546 82 71 0.0 0.0 0.00 0.00 0.00 84 1013.5
20260905041042 82 71 0.0 0.0 0.00 0.00 0.00 83 1013.5
20260905040541 83 71 0.0 0.0 0.00 0.00 0.00 83 1013.6
20260905040040 83 71 0.0 0.0 0.00 0.00 0.00 82 1013.4
20260905035535 83 71 0.0 0.0 0.00 0.00 0.00 82 1013.7
20260905035032 84 71 0.0 0.0 0.00 0.00 0.00 82 1013.5
20260905034527 83 71 0.0 0.0 0.00 0.00 0.00 82 1013.5
20260905034027 83 71 0.0 0.0 0.00 0.00 0.00 82 1013.7
20260905033521 84 71 0.0 0.0 0.00 0.00 0.00 81 1013.7
20260905033017 84 71 0.0 0.0 0.00 0.00 0.00 80 1013.5
20260905032512 84 62 0.0 0.0 0.00 0.00 0.00 80 1013.6
20260905032007 84 65 0.0 0.0 0.00 0.00 0.00 80 1013.9
20260905031503 85 65 0.0 0.0 0.00 0.00 0.00 80 1013.7
20260905030957 84 61 0.0 0.0 0.00 0.00 0.00 80 1013.7
20260905030453 85 62 0.0 0.0 0.00 0.00 0.00 79 1013.8
20260905025951 85 62 0.0 0.0 0.00 0.00 0.00 79 1013.5
20260905025447 85 60 0.0 0.0 0.00 0.00 0.00 78 1013.5
20260905024943 86 79 0.0 0.0 0.00 0.00 0.00 76 1013.7
20260905024438 86 79 0.0 0.0 0.00 0.00 0.00 76 1013.7
20260905023933 85 78 0.0 0.0 0.00 0.00 0.00 76 1013.6
20260905023428 86 101 0.9 0.9 0.00 0.00 0.00 76 1013.8
20260905022927 86 36 0.9 0.9 0.00 0.00 0.00 77 1013.6
20260905022423 86 86 0.0 0.9 0.00 0.00 0.00 78 1013.5
20260905021918 86 86 0.0 0.0 0.00 0.00 0.00 75 1013.6
20260905021417 86 86 0.0 0.0 0.00 0.00 0.00 74 1013.5
20260905020912 87 86 0.0 0.0 0.00 0.00 0.00 72 1013.7
20260905020407 87 86 0.0 0.0 0.00 0.00 0.00 71 1013.4
20260905015907 87 86 0.0 0.0 0.00 0.00 0.00 70 1013.2
20260905015405 88 86 0.0 0.0 0.00 0.00 0.00 69 1013.3
20260905014904 88 87 0.0 0.0 0.00 0.00 0.00 70 1013.1
20260905014400 89 87 0.0 0.0 0.00 0.00 0.00 69 1013.3
20260905013855 88 88 0.9 0.9 0.00 0.00 0.00 69 1013.1
20260905013351 88 67 0.9 0.9 0.00 0.00 0.00 71 1013.2
20260905012846 88 85 0.0 0.9 0.00 0.00 0.00 73 1013.1
20260905012342 88 84 0.0 0.0 0.00 0.00 0.00 72 1012.9
20260905011839 88 84 0.0 0.0 0.00 0.00 0.00 73 1012.8
20260905011334 88 84 0.0 0.0 0.00 0.00 0.00 72 1012.8
20260905010829 89 84 0.0 0.0 0.00 0.00 0.00 71 1012.9
20260905010324 89 84 0.0 0.0 0.00 0.00 0.00 71 1012.9
20260905005820 89 84 0.0 0.0 0.00 0.00 0.00 71 1012.7
20260905005316 90 84 0.0 0.0 0.00 0.00 0.00 71 1012.6
20260905004810 90 84 0.0 0.0 0.00 0.00 0.00 69 1012.8
20260905004305 90 84 0.0 0.0 0.00 0.00 0.00 68 1012.7
20260905003800 90 84 0.0 0.0 0.00 0.00 0.00 68 1012.6
20260905003256 91 83 0.0 0.0 0.00 0.00 0.00 67 1012.7
20260905002752 92 83 0.0 0.0 0.00 0.00 0.00 64 1012.5
20260905002251 92 83 0.0 0.0 0.00 0.00 0.00 62 1012.7
20260905001746 93 83 0.0 0.0 0.00 0.00 0.00 61 1012.7
20260905001246 93 83 0.0 0.0 0.00 0.00 0.00 60 1012.8
20260905000742 94 83 0.0 0.0 0.00 0.00 0.00 59 1012.5
20260905000237 95 83 0.0 0.0 0.00 0.00 0.00 57 1012.6
20260904235732 96 83 0.0 0.0 0.00 0.00 0.00 57 1012.8
20260904235226 96 83 0.0 0.0 0.00 0.00 0.00 55 1012.6
20260904234721 97 83 0.0 0.0 0.00 0.00 0.00 54 1012.6
20260904234217 98 83 0.0 0.0 0.00 0.00 0.00 53 1012.7
20260904233712 98 73 0.0 0.0 0.00 0.00 0.00 52 1012.6
20260904233208 99 70 0.0 0.9 0.00 0.00 0.00 51 1012.7
20260904232705 99 84 0.0 0.0 0.00 0.00 0.00 51 1012.5
20260904232201 100 70 0.0 0.9 0.00 0.00 0.00 49 1012.7
20260904231656 100 67 0.0 0.9 0.00 0.00 0.00 49 1012.4
20260904231151 100 69 0.9 0.9 0.00 0.00 0.00 48 1012.6
20260904230650 100 40 0.9 0.9 0.00 0.00 0.00 49 1012.3
20260904230146 100 59 0.9 0.9 0.00 0.00 0.00 50 1012.4
20260904225644 100 272 2.6 2.6 0.00 0.00 0.00 48 1012.7
20260904225139 100 68 0.0 0.0 0.00 0.00 0.00 47 1012.4
20260904224633 101 59 0.0 0.0 0.00 0.00 0.00 48 1012.1
20260904224127 101 65 0.0 0.0 0.00 0.00 0.00 48 1012.4
20260904223627 100 32 0.9 0.9 0.00 0.00 0.00 48 1012.1
20260904223122 100 30 0.9 0.9 0.00 0.00 0.00 50 1012.4
20260904222619 100 27 0.9 0.9 0.00 0.00 0.00 48 1012.3
20260904222114 101 71 0.0 0.9 0.00 0.00 0.00 49 1012.1
20260904221614 101 31 0.9 0.9 0.00 0.00 0.00 50 1012.2
20260904221113 101 79 0.0 0.0 0.00 0.00 0.00 48 1012.4
20260904220608 102 21 0.9 0.9 0.00 0.00 0.00 47 1012.2
20260904220104 101 43 1.7 1.7 0.00 0.00 0.00 47 1012.4
20260904215604 101 12 1.7 1.7 0.00 0.00 0.00 48 1012.4
20260904215100 101 83 1.7 2.6 0.00 0.00 0.00 48 1012.5
20260904214554 101 46 1.7 1.7 0.00 0.00 0.00 48 1012.5
20260904214051 101 71 1.7 1.7 0.00 0.00 0.00 49 1012.4
20260904213548 101 164 2.6 2.6 0.00 0.00 0.00 47 1012.9
20260904213046 102 132 3.5 5.2 0.00 0.00 0.00 47 1013.0
20260904212544 103 304 2.6 4.3 0.00 0.00 0.00 46 1012.8
20260904212040 102 79 0.0 0.9 0.00 0.00 0.00 46 1012.9
20260904211540 102 65 0.9 1.7 0.00 0.00 0.00 47 1012.9
20260904211035 102 239 1.7 1.7 0.00 0.00 0.00 46 1013.0
20260904210534 102 59 0.9 1.7 0.00 0.00 0.00 48 1013.3
20260904210031 101 258 2.6 2.6 0.00 0.00 0.00 46 1013.3
20260904205526 101 358 2.6 4.3 0.00 0.00 0.00 48 1013.3